OMAA Airport Information

Runway Information
Runway 13L Length 13452 ft width 197 ft
Elevation 62 ft Threshold 0 ft Heading 128
Runway 31R Length 13452 ft Width 197 ft
Elevation 72 ft Threshold 0 ft Heading 308
Runway 13R Length 13452 ft width 148 ft
Elevation 82 ft Threshold 0 ft Heading 128
Runway 31L Length 13452 ft Width 148 ft
Elevation 88 ft Threshold 0 ft Heading 308
Airport Frequencies
Type APP Name RDR Frequency 124.4 MHZ
Type ATIS Name ATIS Frequency 125.1 MHZ
Type TWR Name TWR Frequency 119.2 MHZ
Airport Navaids
Type VOR-DME Name Abu Dhabi Frequency 113000 KHZ
Airport Weather Information & NOTAM
ADDS - METARS form results

(0805 UTC 22 May 2018)
 
METAR text: OMAA 220800Z 18006KT 130V240 CAVOK 40/06 Q1008 BECMG 32012KT
Conditions at: OMAA (ABU DHABI INTL , AE) observed 0800 UTC 22 May 2018
Temperature: 40.0°C (104°F)
Dewpoint: 6.0°C (43°F) [RH = 13%]
Pressure (altimeter): 29.76 inches Hg (1008.0 mb)
Winds: from the S (180 degrees) at 7 MPH (6 knots; 3.1 m/s)
Visibility: 6 or more miles (10+ km)
Ceiling: ceiling and visibility are OK
Clouds: unknown
Weather: no significant weather observed at this time